[[{"header":{"parameterUnit":"m.s-1","parameterCategory":1,"la1":30.2991,"la2":30.254,"lo1":-89.0895,"lo2":-89.0444,"dy":0.0017,"dx":0.0017,"nx":28,"ny":28,"refTime":"2024-06-06T09:00:00:Z","depth":0,"parameterNumber":2,"parameterNumberName":"U-component_of_WINDS"},"data":[0,0,0,0,0,0,0,0,0,0,0,0,0,0,0,0,0,0,0,0,0,0,0,0,0,0,0,0,0,0,0,0,0,0,0,0,0,0,0,0,0,0,0,0,0,0,0,0,0,0,0,0,0,0,0,0,0,0,1.7127,1.7128,0,1.7232,1.7233,1.7234,1.7221,1.7219,1.7218,1.7216,1.7327,1.7331,1.7336,0,0,0,0,0,0,0,0,0,0,0,0,0,1.6918,1.6922,1.7127,1.7128,1.7129,1.7231,1.7233,1.7234,1.7221,1.7219,1.7217,1.7215,1.7325,1.7331,1.7336,0,0,0,0,0,0,0,0,0,0,0,0,0,1.7014,1.6923,1.7127,1.7135,1.7137,1.7231,1.7233,1.7235,1.7222,1.7219,1.7217,1.7214,1.7324,1.733,1.7337,1.743,0,0,1.7358,1.7361,0,0,0,0,0,0,0,0,1.7009,1.7022,1.7133,1.7135,1.7137,1.7211,1.72,1.73,1.7223,1.719,1.7216,1.7213,1.729,1.73,1.7325,1.7435,1.744,1.7358,1.7362,1.7365,1.7367,0,0,0,0,0,0,0,1.7002,1.7017,1.7168,1.7134,1.7137,1.7135,1.7145,1.7219,1.7253,1.7192,1.7192,1.7204,1.7291,1.7319,1.7328,1.7442,1.7358,1.7364,1.7368,1.7371,1.7632,1.7635,0,0,0,0,0,0,1.6993,1.7012,1.7165,1.7172,1.7065,1.714,1.7153,1.719,1.7252,1.726,1.7206,1.7203,1.7308,1.732,1.7332,1.7444,1.7365,1.7372,1.7376,1.763,1.7633,1.7636,0,0,0,0,0,0,1.6988,1.7007,1.7161,1.7092,1.7111,1.7147,1.7188,1.7193,1.722,1.7263,1.7269,1.7228,1.7307,1.7322,1.7405,1.7447,1.7375,1.7381,1.7626,1.7631,1.7635,1.767,0,0,0,0,0,0,1.6982,1.7005,1.704,1.7092,1.7115,1.7232,1.7191,1.7197,1.7232,1.7229,1.7285,1.7292,1.7306,1.7395,1.7412,1.7456,1.7386,1.7623,1.7628,1.7633,1.7665,1.7674,1.7683,0,0,0,0,0,1.6975,1.7047,1.7042,1.7061,1.7159,1.7234,1.7247,1.7261,1.7235,1.7271,1.7298,1.729,1.744,1.7404,1.7423,1.7469,1.762,1.7627,1.7633,1.7661,1.7673,1.7683,0,0,0,0,0,0,1.7001,1.7054,1.7049,1.714,1.7183,1.7232,1.7278,1.7274,1.7325,1.7321,1.7337,1.735,1.7433,1.746,1.7418,1.7562,1.7527,1.7537,1.7541,1.7553,1.7562,1.7553,1.7392,0,0,0,0,0,1.7016,1.7072,1.7116,1.7192,1.7214,1.7242,1.7275,1.7282,1.7328,1.7346,1.7379,1.7424,1.7481,1.7519,1.7574,1.7669,1.768,1.771,1.7719,1.7726,1.7735,1.7786,1.7799,1.7657,1.7657,1.7657,0,0,1.7051,1.7087,1.7121,1.7198,1.7232,1.729,1.7257,1.732,1.7363,1.7356,1.7435,1.7462,1.7513,1.7602,1.7643,1.7626,1.7777,1.7734,1.774,1.7745,1.7794,1.7807,1.7819,1.7662,1.7661,1.766,0,0,1.7141,1.7175,1.7241,1.7275,1.7326,1.7344,1.736,1.741,1.7427,1.7507,1.7502,1.7554,1.7653,1.7689,1.772,1.7824,1.7818,1.7842,1.7889,1.7938,1.795,1.7959,1.7996,1.8008,1.7851,1.7851,1.7851,0,1.7178,1.7263,1.7276,1.7339,1.7372,1.7367,1.7434,1.7467,1.7534,1.7558,1.7538,1.7661,1.7695,1.7792,1.7817,1.7843,1.7862,1.7835,1.7947,1.7957,1.7966,1.8001,1.8015,1.7853,1.7853,1.7853,1.7852,0,1.7304,1.7364,1.7412,1.7474,1.7514,1.7579,1.7601,1.764,1.7643,1.7664,1.7745,1.7786,1.7849,1.7873,1.7878,1.797,1.7958,1.7943,1.7908,1.7982,1.8015,1.8028,1.7857,1.7856,1.7855,1.7854,0,0,1.7415,1.7482,1.75,1.7528,1.7583,1.763,1.7694,1.7754,1.7787,1.7833,1.7888,1.7971,1.7956,1.7992,1.8001,1.8044,1.8122,1.8023,1.8025,1.8039,1.8226,1.8237,1.8252,1.8119,1.8121,1.8124,1.8221,0,1.751,1.7623,1.7635,1.7736,1.7791,1.7786,1.7842,1.7883,1.7904,1.7954,1.7978,1.8036,1.8013,1.8034,1.8077,1.8104,1.816,1.8097,1.817,1.8172,1.8156,1.8269,1.8281,1.8371,1.8234,1.8237,1.8238,0,1.7636,1.7684,1.779,1.7837,1.786,1.791,1.7966,1.8014,1.806,1.8072,1.8111,1.8114,1.8181,1.8143,1.8236,1.8193,1.8224,1.8241,1.8245,1.8252,1.8209,1.8278,1.84,1.8414,1.8259,1.8257,1.8256,0,1.7705,1.7796,1.7871,1.7895,1.7952,1.7987,1.8012,1.8055,1.809,1.8139,1.8162,1.8219,1.825,1.8294,1.8312,1.8283,1.8404,1.8368,1.8416,1.8415,1.8441,1.8439,1.8569,1.8462,1.8462,1.8462,1.8461,0,1.7809,1.7874,1.7902,1.7948,1.802,1.8034,1.8106,1.813,1.8168,1.8219,1.8219,1.8267,1.8289,1.834,1.8355,1.8429,1.8444,1.8456,1.8459,1.8455,1.8453,1.8475,1.8469,1.8465,1.8464,1.8464,1.8463,0,1.7897,1.7919,1.7999,1.8046,1.8059,1.811,1.815,1.8195,1.8215,1.8279,1.8295,1.8327,1.8388,1.841,1.8485,1.8495,1.858,1.8579,1.8564,1.8565,1.8611,1.8606,1.8758,1.8779,1.8659,1.866,1.8661,0,1.7962,1.8012,1.8063,1.8096,1.8122,1.8176,1.8211,1.8228,1.8264,1.832,1.8358,1.8417,1.8466,1.8563,1.8594,1.865,1.865,1.8699,1.8658,1.8653,1.8649,1.8646,1.865,1.8707,1.8708,1.8709,1.871,0,1.8075,1.8083,1.8132,1.8186,1.8227,1.8271,1.8313,1.8341,1.8363,1.8405,1.8465,1.8503,1.8578,1.8637,1.8695,1.8723,1.872,1.8722,1.8736,1.8733,1.8722,1.8727,1.8584,1.8719,1.8718,1.8717,1.8717,1.8716,1.8153,1.8196,1.8238,1.8294,1.8327,1.8366,1.8409,1.8434,1.8485,1.8546,1.8553,1.8618,1.8663,1.874,1.877,1.8821,1.8808,1.8829,1.8834,1.8838,1.8841,1.8714,1.8832,1.8832,1.8832,1.8832,1.8832,0,1.8264,1.8291,1.8342,1.84,1.8443,1.8436,1.8482,1.8519,1.8576,1.8617,1.8664,1.8734,1.8792,1.8826,1.8884,1.8919,1.8919,1.8933,1.8931,1.8937,1.885,1.8832,1.8932,1.8932,1.8932,1.8932,1.8932,1.8932,1.8327,1.8399,1.8412,1.8501,1.8527,1.859,1.8617,1.8653,1.8685,1.8763,1.881,1.8831,1.887,1.893,1.8983,1.8992,1.9013,1.9028,1.9035,1.8954,1.8943,1.8933,1.8916,1.9033,1.9033,1.9118,1.9119,1.9119]},{"header":{"parameterUnit":"m.s-1","parameterCategory":1,"la1":30.2991,"la2":30.254,"lo1":-89.0895,"lo2":-89.0444,"dy":0.0017,"dx":0.0017,"nx":28,"ny":28,"refTime":"2024-06-06T09:00:00:Z","depth":0,"parameterNumber":3,"parameterNumberName":"V-component_of_WINDS"},"data":[0,0,0,0,0,0,0,0,0,0,0,0,0,0,0,0,0,0,0,0,0,0,0,0,0,0,0,0,0,0,0,0,0,0,0,0,0,0,0,0,0,0,0,0,0,0,0,0,0,0,0,0,0,0,0,0,0,0,2.0003,2.0003,0,2.0031,2.0031,2.0031,1.9986,1.9984,1.9983,1.9981,2.0013,2.0015,2.0017,0,0,0,0,0,0,0,0,0,0,0,0,0,1.991,1.9912,2.0002,2.0003,2.0003,2.0031,2.0031,2.0032,1.9986,1.9984,1.9982,1.9981,2.0012,2.0015,2.0018,0,0,0,0,0,0,0,0,0,0,0,0,0,1.9945,1.9912,2.0002,1.9984,1.9982,2.0031,2.0031,2.0032,1.9987,1.9984,1.9982,1.998,2.0011,2.0015,2.0018,2.0086,0,0,2.0029,2.003,0,0,0,0,0,0,0,0,1.9943,1.9949,1.9986,1.9985,1.9984,2.0002,2.001,2.005,1.9987,1.9985,1.9981,1.9979,2.0011,2.0015,2.0025,2.0088,2.0089,2.0029,2.0031,2.0032,2.0033,0,0,0,0,0,0,0,1.9941,1.9947,2.0014,1.9987,1.9985,1.9974,1.9977,2.0017,2.0011,1.9985,1.9982,1.9986,2.001,2.0022,2.0026,2.009,2.0029,2.0032,2.0034,2.0035,2.0207,2.0209,0,0,0,0,0,0,1.9941,1.9946,2.0013,2.0015,1.9957,1.9978,1.9981,1.9999,2.0011,2.001,1.9988,1.9983,2.0017,2.0022,2.0027,2.0105,2.0032,2.0036,2.0038,2.0204,2.0207,2.021,0,0,0,0,0,0,1.9939,1.9947,2.0012,1.9979,1.9987,1.9982,2.0003,2.0001,2.0012,2.0013,2.0011,2.0001,2.0016,2.0022,2.0071,2.0106,2.0037,2.004,2.0201,2.0205,2.0208,2.0265,0,0,0,0,0,0,1.9936,1.9947,1.9973,1.998,1.9988,2.0056,2.0005,2.0003,2.0018,2.0013,2.0025,2.0024,2.0014,2.0066,2.0074,2.0109,2.0043,2.0198,2.0203,2.0207,2.026,2.027,2.0279,0,0,0,0,0,1.9933,1.9989,1.9974,1.9983,2.0021,2.0058,2.0063,2.0049,2.0021,2.0047,2.0047,2.0024,2.0101,2.0072,2.0081,2.0117,2.0196,2.0202,2.0207,2.0256,2.0268,2.0279,0,0,0,0,0,0,1.9988,1.999,1.9974,2.0033,2.0045,2.005,2.0083,2.0064,2.0085,2.0079,2.0062,2.0066,2.0118,2.0122,2.009,2.0182,2.0143,2.0151,2.0177,2.0189,2.0199,2.0196,2.0046,0,0,0,0,0,2.0007,2.0036,2.0036,2.0089,2.0095,2.0088,2.0104,2.0092,2.0105,2.011,2.0113,2.0127,2.0153,2.0172,2.0197,2.026,2.0261,2.029,2.0299,2.0307,2.0314,2.0345,2.0357,2.0228,2.0228,2.0228,0,0,2.0046,2.0051,2.0071,2.01,2.0108,2.0138,2.0093,2.0128,2.015,2.0116,2.0161,2.0164,2.0178,2.0234,2.0259,2.0239,2.0349,2.0314,2.032,2.0323,2.0352,2.0364,2.0375,2.0232,2.0231,2.0231,0,0,2.0134,2.0141,2.0184,2.0192,2.0204,2.0198,2.0208,2.0215,2.0215,2.026,2.0234,2.026,2.0308,2.0318,2.0329,2.0416,2.0395,2.0425,2.0475,2.0505,2.0515,2.0524,2.0554,2.0565,2.0432,2.0432,2.0432,0,2.0182,2.0226,2.0209,2.0244,2.0257,2.0225,2.0268,2.0277,2.0297,2.0307,2.0285,2.0341,2.0348,2.0405,2.0425,2.0436,2.0447,2.0424,2.0515,2.0524,2.0532,2.056,2.0571,2.0435,2.0435,2.0435,2.0434,0,2.0283,2.0314,2.0348,2.0365,2.0382,2.0422,2.041,2.0429,2.0415,2.0411,2.0456,2.0463,2.0488,2.05,2.0489,2.0555,2.0542,2.0518,2.0478,2.0548,2.0574,2.0584,2.044,2.0439,2.0438,2.0437,0,0,2.0408,2.0413,2.0425,2.0432,2.0441,2.0465,2.0502,2.0524,2.054,2.0554,2.0584,2.0623,2.06,2.0613,2.0601,2.0628,2.0694,2.06,2.06,2.0616,2.0765,2.0782,2.0795,2.068,2.0682,2.0684,2.0763,0,2.0493,2.0556,2.054,2.0602,2.0629,2.0598,2.0629,2.0639,2.0635,2.0658,2.0655,2.0682,2.065,2.0657,2.0683,2.0681,2.0724,2.0675,2.0707,2.0709,2.0704,2.0809,2.0828,2.0903,2.0773,2.0775,2.0776,0,2.0602,2.0617,2.0682,2.0683,2.0694,2.0723,2.0741,2.0763,2.0772,2.0768,2.078,2.0762,2.0798,2.0758,2.0806,2.0773,2.0785,2.0786,2.0789,2.0791,2.0746,2.0813,2.0927,2.0938,2.0793,2.0791,2.079,0,2.0684,2.0721,2.0764,2.077,2.0774,2.0795,2.0798,2.0804,2.0817,2.0833,2.0841,2.0861,2.0872,2.0888,2.0876,2.0848,2.0925,2.0885,2.0922,2.0922,2.094,2.0939,2.1056,2.0949,2.0949,2.0949,2.0949,0,2.078,2.0821,2.08,2.0826,2.087,2.0851,2.0894,2.0893,2.0899,2.0924,2.0898,2.0922,2.0905,2.0927,2.0918,2.0958,2.0964,2.0961,2.0958,2.0963,2.0963,2.097,2.0964,2.0952,2.0951,2.095,2.095,0,2.088,2.0868,2.0911,2.091,2.0911,2.0943,2.0941,2.0965,2.0959,2.0991,2.0997,2.0988,2.1013,2.1002,2.1029,2.1022,2.1073,2.1064,2.107,2.1067,2.1104,2.11,2.123,2.1245,2.1129,2.1131,2.1132,0,2.0942,2.0971,2.0972,2.0986,2.099,2.1013,2.1026,2.1008,2.1022,2.1032,2.1055,2.1077,2.1093,2.1134,2.113,2.115,2.114,2.1184,2.1143,2.1146,2.1139,2.1137,2.1139,2.1192,2.1193,2.1195,2.1195,0,2.1052,2.1044,2.1063,2.1078,2.1093,2.1105,2.1115,2.1129,2.111,2.1128,2.1151,2.1164,2.119,2.1212,2.1228,2.1231,2.121,2.1208,2.1217,2.1222,2.1224,2.1222,2.1091,2.1205,2.1204,2.1204,2.1203,2.1203,2.1134,2.1157,2.1161,2.1181,2.1186,2.1195,2.1216,2.1212,2.1231,2.1249,2.1237,2.1265,2.1271,2.129,2.1296,2.1317,2.13,2.1314,2.1317,2.132,2.1324,2.1221,2.132,2.132,2.132,2.1319,2.1319,0,2.1242,2.1241,2.126,2.1273,2.1289,2.1266,2.1275,2.129,2.1314,2.1321,2.1337,2.1363,2.1383,2.138,2.1398,2.1415,2.1406,2.1421,2.1419,2.1419,2.134,2.1329,2.1428,2.1428,2.1428,2.1428,2.1428,2.1428,2.13,2.1337,2.1329,2.1368,2.1368,2.1393,2.14,2.1408,2.1412,2.1442,2.1458,2.1455,2.1457,2.1475,2.1492,2.149,2.1498,2.1516,2.151,2.1436,2.1425,2.1415,2.1405,2.1518,2.1518,2.1588,2.1588,2.1589]}]]